Probability
30 29 25 19 18 23 27 27 23 19 16 15 15 12 9 10 12 12 10 9 10 13 21 32 40 43 46 46 40 31 22 13 10 9 6 2 1 2 3 1 0 0 0
41 37 28 21 17 18 21 20 17 14 13 11 10 9 7 6 8 11 10 10 10 13 22 31 38 41 42 42 39 33 25 17 12 10 8 5 3 4 4 2 1 1 1
46 37 26 18 13 11 11 11 9 8 6 5 3 3 3 3 6 9 11 11 12 14 21 30 35 38 37 37 35 32 28 22 17 14 11 9 9 7 6 4 3 2 2
35 26 17 12 8 6 5 5 4 3 1 1 0 0 1 2 5 8 9 11 12 14 17 22 26 29 30 29 27 27 28 26 22 16 13 13 13 11 7 5 4 3 3
21 17 10 6 4 3 2 2 1 1 0 0 0 0 1 2 4 5 6 7 8 10 11 12 13 17 19 20 20 20 24 27 24 18 14 14 14 11 7 5 4 3 2
13 11 7 4 2 1 1 1 0 0 0 0 0 0 0 1 1 2 3 4 5 6 6 7 8 9 12 15 16 17 20 26 25 20 16 13 12 10 6 4 4 3 2
8 6 4 3 2 2 1 0 0 0 0 0 0 0 0 0 0 0 1 3 5 5 4 4 6 7 9 11 12 12 16 20 22 20 15 14 14 12 8 5 3 2 1
4 2 1 1 2 3 2 1 0 0 0 0 0 0 0 0 0 0 0 2 5 5 4 3 3 4 7 8 7 7 10 13 16 15 13 14 19 17 12 8 4 1 0
2 1 0 1 1 2 2 2 0 0 0 0 0 0 0 0 0 0 0 0 2 3 3 2 2 2 4 5 5 5 7 9 10 9 8 12 18 19 17 14 8 2 0
4 3 2 2 2 2 2 1 0 0 0 0 0 0 0 0 0 0 0 0 0 1 1 1 1 1 1 3 4 4 4 5 5 5 6 11 17 18 18 16 10 4 2
5 4 3 4 5 4 3 1 0 0 0 0 0 0 0 0 0 0 0 0 0 0 0 0 0 0 0 1 2 2 2 1 1 3 6 12 17 17 16 14 11 8 7
4 3 3 4 5 6 5 3 1 0 0 0 0 0 0 0 0 0 0 0 0 0 0 0 0 0 0 0 1 1 1 0 0 2 4 9 13 15 13 11 11 12 12
4 3 2 2 4 5 5 3 2 1 0 0 0 0 0 0 0 0 0 0 0 0 0 0 0 0 0 0 0 0 0 0 0 1 1 3 6 8 8 7 9 12 13
2 2 1 1 2 2 2 3 2 1 0 0 0 0 0 0 0 0 0 0 0 0 0 0 0 0 0 0 0 0 0 0 0 0 0 1 2 3 4 4 5 8 10
0 0 0 0 1 1 1 1 1 0 0 0 0 0 0 0 0 0 0 0 0 0 0 0 0 0 0 0 0 0 0 0 0 0 0 0 0 1 1 3 3 4 5
0 0 0 0 0 0 0 0 0 0 0 0 0 0 0 0 0 0 0 0 0 0 0 0 0 0 0 0 0 0 0 0 0 0 0 0 0 0 0 1 2 2 2
0 0 0 0 0 0 0 0 0 0 0 0 0 0 0 0 0 0 0 0 0 0 0 0 0 0 0 0 0 0 0 0 0 0 0 0 0 0 0 0 1 1 1
0 0 0 0 0 0 0 0 0 0 0 0 0 0 0 0 0 0 0 0 0 0 0 0 0 0 0 0 0 0 0 0 0 0 0 0 0 0 0 0 0 0 0
0 0 0 0 0 0 0 0 0 0 0 0 0 0 0 0 0 0 0 0 0 0 0 0 0 0 0 0 0 0 0 0 0 0 0 0 0 0 0 0 0 0 0
0 0 0 0 0 0 0 0 0 0 0 0 0 0 0 0 0 0 0 0 0 0 0 0 0 0 0 0 0 0 0 0 0 0 0 0 0 0 0 0 0 0 0
0 0 0 0 0 0 0 0 0 0 0 0 0 0 0 0 0 0 0 0 0 0 0 0 0 0 0 0 0 0 0 0 0 0 0 0 0 0 0 0 0 0 0
0 0 0 0 0 0 0 0 0 0 0 0 0 0 0 0 0 0 0 0 0 0 0 0 0 0 0 0 0 0 0 0 0 0 0 0 0 0 0 0 0 0 0
0 0 0 0 0 0 0 0 0 0 0 0 0 0 0 0 0 0 0 0 0 0 0 0 0 0 0 0 0 0 0 0 0 0 0 0 0 0 0 0 0 0 0
0 0 0 0 0 0 0 0 0 0 0 0 0 0 0 0 0 0 0 0 0 0 0 0 0 0 0 0 0 0 0 0 0 0 0 0 0 0 0 0 0 0 0
0 0 0 0 0 0 0 0 0 0 0 0 0 0 0 0 0 0 0 0 0 0 0 0 0 0 0 0 0 0 0 0 0 0 0 0 0 0 0 0 0 0 0
0 0 0 0 0 0 0 0 0 0 0 0 0 0 0 0 0 0 0 0 0 0 0 0 0 0 0 0 0 0 0 0 0 0 0 0 0 0 0 0 0 0 0
Wind_Speed
5 4 3 3 3 2 3 4 4 5 6 7 7 8 8 8 8 7 5 12 14 15 16 18 20 20 19 18 19 19 19 20 19 19 20 20 20 19 18 18 17 16 16
4 3 3 2 2 2 3 3 4 4 4 4 6 6 7 7 7 7 6 8 14 15 16 18 19 19 19 19 20 20 20 20 19 19 20 20 20 19 19 19 18 17 17
4 3 2 2 2 2 2 1 2 2 3 3 4 5 4 6 6 7 6 5 6 12 15 17 17 18 19 20 21 20 20 20 19 19 19 20 20 20 19 19 19 18 18
4 3 2 1 2 1 1 1 1 1 2 3 3 4 4 4 6 6 6 6 6 6 10 17 18 18 19 20 21 20 20 20 19 20 20 20 20 20 20 20 20 19 18
4 3 1 1 1 0 0 1 1 1 2 3 3 4 4 4 5 6 6 7 7 7 6 11 17 18 18 20 20 20 20 20 20 20 21 21 21 21 20 21 20 20 19
4 3 1 1 1 1 0 0 1 1 2 2 3 4 4 5 5 5 7 6 6 8 7 8 7 10 17 18 18 20 21 20 20 21 21 22 21 21 21 21 20 20 20
4 4 3 2 1 1 1 1 1 1 1 1 1 3 4 4 4 5 4 4 5 6 6 7 6 6 6 14 17 18 20 20 20 21 21 21 21 20 21 21 21 20 20
5 4 4 3 2 2 1 1 1 0 1 0 1 1 3 5 4 3 3 3 5 4 5 8 7 8 7 5 8 15 18 20 21 21 20 20 20 20 20 21 21 21 21
4 4 5 4 4 3 2 2 2 2 1 1 1 2 1 2 4 4 3 2 3 3 4 5 6 7 8 6 6 11 16 17 19 20 20 20 20 20 20 21 21 21 21
2 3 4 4 4 3 3 3 3 3 2 1 1 1 3 3 2 4 4 3 3 3 4 4 5 5 6 6 8 11 14 14 15 18 19 18 19 19 19 21 22 22 21
2 2 3 3 3 3 4 4 3 3 3 3 2 2 1 2 3 3 4 4 3 3 3 4 3 4 4 5 6 9 13 14 14 15 16 16 17 18 19 21 22 22 22
2 2 2 2 2 3 4 4 4 5 4 4 3 3 3 2 2 2 4 4 4 4 3 3 3 4 3 4 6 10 12 13 13 14 14 14 14 16 18 20 21 21 22
2 3 2 2 2 3 4 4 4 5 5 5 4 4 4 4 4 3 3 4 4 3 3 2 2 2 3 2 3 7 8 10 12 12 12 12 13 15 16 17 18 19 19
3 3 3 3 3 3 4 4 4 5 5 5 6 5 4 4 4 4 4 3 4 3 2 3 2 2 2 1 3 5 4 7 9 10 11 11 11 12 13 14 14 14 14
3 3 4 4 4 4 4 4 4 5 5 6 6 6 5 4 4 4 4 4 3 4 4 3 2 1 2 2 2 2 2 4 7 8 8 9 9 9 10 10 11 11 11
4 4 4 4 5 4 5 4 4 5 5 6 5 6 6 4 4 4 4 4 4 4 4 3 2 2 2 2 2 1 1 1 3 5 6 6 7 7 7 8 8 9 9
4 5 5 5 5 5 5 5 6 5 6 6 6 6 7 6 4 4 4 3 4 4 6 4 2 2 1 1 1 1 1 1 1 3 4 5 7 8 8 8 8 8 8
5 6 6 6 6 6 5 5 6 6 6 7 7 7 7 6 6 4 4 4 4 5 5 5 3 2 2 2 1 1 1 2 3 5 6 8 9 10 10 10 10 10 10
6 6 6 6 6 6 6 6 6 7 7 7 7 7 7 6 6 5 5 5 4 4 4 4 3 2 1 2 1 2 3 3 4 6 8 9 11 11 11 11 11 11 11
6 6 6 6 6 6 6 6 6 6 7 7 7 7 7 7 7 6 5 5 4 4 4 4 3 2 2 2 3 3 3 3 3 5 7 8 11 13 12 12 12 12 12
7 6 6 6 5 5 5 5 5 6 6 6 6 6 7 9 10 8 6 5 5 4 4 4 4 3 3 4 4 3 4 4 3 3 5 5 6 6 7 10 12 12 11
7 6 6 6 6 6 7 9 7 6 6 6 7 6 6 8 9 11 11 10 9 8 7 6 4 5 5 5 4 5 6 5 3 2 4 4 4 5 4 4 8 11 11
7 6 7 7 7 8 11 11 11 6 6 6 6 5 5 5 6 5 6 8 9 10 10 7 7 7 7 7 7 7 6 5 4 5 5 4 3 4 4 5 9 10 9
6 6 7 7 7 9 11 11 11 7 6 6 6 6 6 5 5 5 5 4 4 5 6 6 6 6 6 6 7 7 7 6 6 4 3 4 3 3 4 4 6 8 8
6 6 6 7 7 8 11 11 10 4 5 6 5 5 5 6 7 8 6 5 4 2 3 6 7 7 9 10 9 8 8 8 7 3 2 4 3 3 3 3 3 5 6
7 6 7 7 7 8 10 12 9 4 4 4 3 3 5 6 7 8 6 6 6 4 4 5 5 6 6 8 10 9 9 9 8 4 2 4 4 4 3 1 1 2 3
Wind_Direction
213 214 224 232 237 227 218 221 224 228 226 226 227 226 227 227 229 227 236 245 245 244 239 227 220 219 217 215 215 214 214 214 211 209 208 208 208 206 205 204 203 201 200
200 194 214 230 237 227 215 212 221 225 226 225 234 233 228 226 231 229 229 244 247 244 239 227 221 220 222 221 220 219 217 217 215 213 211 210 209 208 207 206 205 203 202
175 177 193 223 242 242 235 229 232 222 238 239 247 247 236 234 231 228 225 228 242 242 234 227 222 219 222 226 224 221 220 218 216 215 214 213 211 210 208 207 206 205 204
163 158 174 223 239 248 238 224 229 233 251 250 250 251 245 240 239 232 224 221 221 232 231 229 228 224 223 228 229 227 224 221 218 217 216 215 213 212 210 209 208 206 205
144 137 173 228 228 169 300 254 218 212 250 266 265 258 250 246 246 243 230 223 218 219 221 229 229 229 229 231 233 232 230 225 221 219 218 218 216 214 212 210 209 207 206
150 139 154 197 145 123 342 272 251 240 239 256 279 284 266 254 245 241 239 233 222 221 220 227 231 234 234 235 235 236 236 231 226 223 221 220 218 215 213 212 210 208 207
160 161 166 185 169 164 207 238 211 263 275 278 336 316 301 276 257 249 241 235 234 230 219 221 223 226 234 236 237 239 240 238 234 229 224 221 219 216 213 212 210 208 208
171 176 176 185 184 175 199 221 156 176 274 78 131 329 328 331 325 286 262 241 245 239 232 232 224 222 227 226 231 236 240 241 238 234 229 224 220 217 214 213 210 208 208
192 192 192 190 194 183 195 208 185 170 220 275 171 170 199 275 309 312 304 281 274 259 251 246 237 232 228 224 227 235 238 240 241 239 233 228 223 218 215 214 211 209 208
227 228 221 209 201 194 200 210 187 176 174 231 267 208 201 200 236 302 312 310 304 284 274 268 257 244 232 225 226 228 232 232 236 239 237 231 226 220 216 214 213 210 208
269 250 241 223 216 210 212 212 198 193 188 198 208 219 232 231 211 220 283 306 318 294 282 270 261 255 243 231 228 229 225 226 229 235 235 232 229 224 220 216 216 214 212
296 296 269 236 226 218 219 218 213 208 206 210 211 204 203 215 221 217 252 280 291 289 290 282 269 263 255 242 239 233 226 224 227 231 234 232 231 227 222 219 218 218 216
315 305 307 258 242 235 231 221 219 223 215 215 218 219 214 216 210 210 234 263 273 285 288 293 279 282 280 265 254 242 236 229 225 225 225 225 228 228 222 217 217 218 218
287 298 309 291 269 253 245 232 229 228 224 223 230 226 223 225 211 207 211 232 279 286 276 269 290 284 302 302 278 264 252 233 222 220 221 222 221 220 216 211 210 211 213
292 310 305 297 285 266 253 242 236 236 231 229 231 230 228 228 218 215 207 199 218 268 280 258 260 297 329 327 309 289 264 236 220 217 216 215 212 208 202 199 199 198 202
297 302 302 292 284 277 267 254 251 246 240 238 231 230 232 229 223 216 212 211 208 224 255 251 243 273 301 305 328 331 284 216 216 205 198 191 183 180 177 181 181 184 186
282 285 284 285 279 271 265 258 253 250 244 244 241 233 233 225 221 221 215 215 215 211 247 264 250 252 261 260 319 13 34 76 92 139 150 143 137 135 139 142 142 146 147
270 272 273 275 275 274 267 261 261 258 249 247 242 235 236 231 222 218 215 220 221 214 223 249 254 242 241 217 189 138 93 92 88 97 113 120 122 123 123 122 121 121 120
266 271 269 267 269 271 269 264 259 258 250 246 241 234 232 224 226 222 218 221 223 222 211 219 239 234 232 186 149 119 100 88 91 96 98 102 107 111 112 113 111 109 108
252 259 264 261 260 264 266 266 268 262 254 248 242 235 228 220 221 219 222 219 211 210 208 210 219 212 204 177 153 146 122 98 95 93 86 91 97 98 102 107 110 110 109
250 247 255 260 258 259 260 266 271 273 262 257 248 238 231 227 222 216 216 210 201 202 201 203 206 198 188 173 169 158 141 121 89 99 101 92 93 91 91 100 106 111 111
248 245 245 249 252 260 271 277 269 265 264 256 251 243 237 233 226 221 220 216 207 201 201 200 204 195 193 180 162 156 147 140 126 128 108 91 89 91 85 89 109 112 113
237 241 245 245 247 254 262 269 270 259 254 253 244 236 239 229 217 213 215 218 216 211 205 199 197 198 189 179 164 162 158 142 131 147 119 97 86 89 87 100 112 112 113
231 236 243 244 246 256 261 265 267 262 251 251 241 234 231 220 211 202 204 207 204 204 204 205 201 200 186 176 167 158 146 119 101 113 110 106 100 88 81 79 100 107 110
235 236 239 242 243 256 260 259 260 249 248 252 244 235 228 217 209 197 190 185 183 196 186 181 181 175 168 164 153 138 140 138 132 123 87 105 114 94 76 70 82 106 114
237 240 242 241 240 248 255 254 250 231 239 243 240 237 225 210 198 187 184 173 174 174 149 135 134 137 148 152 154 155 154 148 138 132 141 112 133 121 100 70 91 101 101